Volver al catálogo

NOAA 16 DEB

ActivoSSO
NORAD 42399·DEBRIS·🇺🇸 United States

Lanzado Sep 21, 2000 desde Vandenberg Space Force Base

Loading…

Próximos Pases (próximas 24 horas)

TLE

ActualizadoSource: Space-Track

Época: Sep 13, 2026, 10:39 UTC

1 42399U 00055ST  26256.44386412  .00002005  00000-0  83101-3 0  9993
2 42399  98.6597 324.4657 0013292 130.2779 229.9566 14.27636615541471

Sigue NOAA 16 DEB en tiempo real con AllMySat

Download on the App Store